GW1508 Weather Reports


time (UTC)temp
C
wind
direction
speed
KPH
gust
KPH
rain 1hr
cm
rain 24hr
cm
rain mn
cm
humidity
%
barometer
mb
20260831182842 9 101 3.2 11.3 0.00 0.00 0.00 94 1021.0
20260831175846 8 59 0.0 0.0 0.00 0.00 0.00 91 1020.9
20260831174340 10 59 0.0 0.0 0.00 0.00 0.00 88 1020.9
20260831171343 12 59 0.0 0.0 0.00 0.00 0.00 86 1020.7
20260831165838 13 59 0.0 0.0 0.00 0.00 0.00 87 1020.9
20260831162844 15 59 0.0 0.0 0.00 0.00 0.00 86 1021.2
20260831161343 16 61 0.0 3.2 0.00 0.00 0.00 86 1021.2
20260831154348 16 51 3.2 9.7 0.00 0.00 0.00 86 1021.3
20260831152837 16 61 0.0 4.8 0.00 0.00 0.00 87 1021.4
20260831145848 16 105 3.2 11.3 0.00 0.00 0.00 87 1021.5
20260831144341 16 79 0.0 6.4 0.00 0.00 0.00 88 1021.4
20260831141346 16 102 0.0 8.0 0.00 0.00 0.00 86 1021.2
20260831135838 16 89 4.8 11.3 0.00 0.00 0.00 85 1021.3
20260831132842 17 350 0.0 6.4 0.00 0.00 0.00 84 1021.2
20260831131334 17 77 1.6 8.0 0.00 0.00 0.00 84 1021.3
20260831124349 17 79 1.6 12.9 0.00 0.00 0.00 82 1021.4
20260831121347 17 63 1.6 11.3 0.00 0.00 0.00 79 1021.4
20260831115839 17 40 3.2 11.3 0.00 0.00 0.00 79 1021.3
20260831112842 17 102 1.6 11.3 0.00 0.00 0.00 78 1021.5
20260831105835 18 117 3.2 17.7 0.00 0.00 0.00 75 1021.6
20260831102837 18 73 0.0 8.0 0.00 0.00 0.00 70 1021.7
20260831101331 18 195 1.6 8.0 0.00 0.00 0.00 71 1021.6
20260831094344 18 141 0.0 3.2 0.00 0.00 0.00 75 1021.9
20260831092833 18 101 0.0 8.0 0.00 0.00 0.00 74 1022.0
20260831085844 17 186 0.0 3.2 0.00 0.00 0.00 73 1022.2
20260831082837 17 319 0.0 3.2 0.00 0.00 0.00 73 1022.0
20260831075843 17 304 0.0 3.2 0.00 0.00 0.00 77 1021.8
20260831074337 17 238 0.0 1.6 0.00 0.00 0.00 79 1021.9
20260831071348 13 105 0.0 1.6 0.00 0.00 0.00 93 1021.9
20260831065843 12 103 0.0 6.4 0.00 0.00 0.00 94 1022.1
20260831064334 10 74 0.0 3.2 0.00 0.00 0.00 94 1022.6
20260831061343 0 77 0.0 0.0 0.00 0.00 0.00 94 1022.7
20260831055836 0 77 0.0 0.0 0.00 0.00 0.00 94 1022.6
20260831052850 -1 77 0.0 0.0 0.00 0.00 0.00 95 1022.5
20260831051339 -1 77 0.0 0.0 0.00 0.00 0.00 95 1022.5
20260831044344 -1 77 0.0 0.0 0.00 0.00 0.00 95 1022.4
20260831042837 -1 77 0.0 0.0 0.00 0.00 0.00 95 1022.4
20260831041330 -1 77 0.0 0.0 0.00 0.00 0.00 95 1022.3
20260831034341 -1 77 0.0 0.0 0.00 0.00 0.00 95 1022.4
20260831032832 -1 77 0.0 0.0 0.00 0.00 0.00 95 1022.4
20260831025843 -1 77 0.0 0.0 0.00 0.00 0.00 95 1022.9
20260831024336 -1 77 0.0 0.0 0.00 0.00 0.00 94 1022.8
20260831021341 -1 77 0.0 0.0 0.00 0.00 0.00 95 1022.8
20260831015833 -1 77 0.0 0.0 0.00 0.00 0.00 94 1022.9
20260831012841 -1 77 0.0 0.0 0.00 0.00 0.00 95 1023.0
20260831005847 -1 77 0.0 0.0 0.00 0.00 0.00 94 1023.0
20260831004339 -1 77 0.0 0.0 0.00 0.00 0.00 94 1023.0
20260831001333 0 77 0.0 0.0 0.00 0.00 0.00 94 1023.2
20260830234341 0 77 0.0 0.0 0.00 0.00 0.00 94 1023.1
20260830231334 0 77 0.0 0.0 0.00 0.00 0.00 94 1023.1
20260830225827 0 77 0.0 0.0 0.00 0.00 0.00 94 1023.4
20260830222836 1 77 0.0 0.0 0.00 0.00 0.00 94 1023.3
20260830215850 1 77 0.0 0.0 0.00 0.00 0.00 94 1023.3
20260830212846 2 77 0.0 0.0 0.00 0.00 0.00 94 1023.2
20260830211340 2 77 0.0 0.0 0.00 0.00 0.00 94 1023.1
20260830205838 2 77 0.0 0.0 0.00 0.00 0.00 94 1023.0
20260830202847 3 77 0.0 0.0 0.00 0.00 0.00 93 1022.6
20260830201340 3 77 0.0 0.0 0.00 0.00 0.00 92 1022.5
20260830194346 5 77 0.0 0.0 0.00 0.00 0.00 91 1022.3
20260830192842 6 77 0.0 0.0 0.00 0.00 0.00 92 1022.2